TSC460 CYUL-CYYZ

Flight info

Callsign TSC460
Flight time N/A
Altitude 36000
Route BOBKI DCT MELTI DCT TORNI RAGID6
Aircraft A320/M-SDE3FGHIRWY/LB1

Departure

Time 2026-04-30 19:29
Airport Montreal / Pierre Elliott Trudeau International Airport (CYUL)

Arrival

Time N/A
Airport Toronto Pearson International Airport (CYYZ)
Time Latitude Longitude Altitude Speed Heading
2026-04-30 19:10 45.45927 -73.75227 110 ft 0 kts 176°
2026-04-30 19:17 45.45935 -73.75228 94 ft 2 kts 176°
2026-04-30 19:17 45.45952 -73.75230 108 ft 2 kts 176°
2026-04-30 19:18 45.45981 -73.75233 110 ft 2 kts 176°
2026-04-30 19:18 45.46003 -73.75235 110 ft 1 kts 176°
2026-04-30 19:21 45.45996 -73.75222 110 ft 1 kts 99°
2026-04-30 19:22 45.45993 -73.75183 112 ft 9 kts 95°
2026-04-30 19:23 45.45965 -73.74561 117 ft 28 kts 81°
2026-04-30 19:24 45.46064 -73.74165 111 ft 18 kts 33°
2026-04-30 19:24 45.46168 -73.74046 112 ft 21 kts 44°
2026-04-30 19:24 45.46380 -73.73765 118 ft 22 kts 41°
2026-04-30 19:25 45.46773 -73.73230 112 ft 29 kts 43°
2026-04-30 19:26 45.47076 -73.72838 115 ft 29 kts 49°
2026-04-30 19:26 45.47386 -73.72449 113 ft 31 kts 40°
2026-04-30 19:26 45.47542 -73.72243 115 ft 30 kts 43°
2026-04-30 19:27 45.47811 -73.71802 112 ft 27 kts 97°
2026-04-30 19:27 45.47637 -73.71687 113 ft 0 kts 220°
2026-04-30 19:28 45.47080 -73.72435 111 ft 131 kts 225°
2026-04-30 19:29 45.45482 -73.74242 1643 ft 148 kts 221°
2026-04-30 19:29 45.44663 -73.75092 2498 ft 150 kts 220°
2026-04-30 19:30 45.41560 -73.78105 4777 ft 185 kts 217°
2026-04-30 19:30 45.40510 -73.81346 6618 ft 181 kts 261°
2026-04-30 19:31 45.40380 -73.84433 8560 ft 160 kts 263°
2026-04-30 19:31 45.40304 -73.86002 9219 ft 159 kts 263°
2026-04-30 19:31 45.40111 -73.89217 10395 ft 165 kts 260°
2026-04-30 19:32 45.39989 -73.90847 10961 ft 166 kts 259°
2026-04-30 19:32 45.39852 -73.92482 11550 ft 166 kts 257°
2026-04-30 19:32 45.39701 -73.94111 12129 ft 166 kts 256°
2026-04-30 19:32 45.39537 -73.95739 12683 ft 167 kts 255°